Wind from 263 at 5 knots gusting 9

Air temperature 21.7° C
Dewpoint 11.9° C

Last reported at 2014-Apr-23 12:47 UTC.
Time now 2014-Apr-23 13:11 UTC

Location: N 39°03' E 001°25'.
View on Google Maps.

See reports from other nearby stations

Tides Stations Pressure Air Temp Water Temp Dewpoint Dewpoint depression Visibility Wind Speed Wind Dir Waves Ship positions

  
sailing weather and tide predictions

DW4510 Ibiza ES weather

date/time (UTC)wind fromknots sea level pressurealtimeterstation pressurevisibilityair tempwater tempwave heightnotes
2014-Apr-23 12:47 263 5 gusting 9 21.7
2014-Apr-23 12:38 229 2 gusting 8 21.7
2014-Apr-23 12:29 201 0 gusting 6 21.7
2014-Apr-23 12:20 197 6 gusting 7 21.7
2014-Apr-23 12:11 206 7 gusting 7 21.1
2014-Apr-23 12:02 250 2 gusting 8 21.1
2014-Apr-23 11:53 271 5 gusting 8 21.7
2014-Apr-23 11:44 281 3 gusting 6 21.1
2014-Apr-23 11:35 277 5 gusting 6 21.1
2014-Apr-23 11:26 285 5 gusting 8 21.1
2014-Apr-23 11:17 288 6 gusting 9 20.6
2014-Apr-23 11:08 292 6 gusting 10 20.6
2014-Apr-23 10:59 284 8 gusting 10 20.6
2014-Apr-23 10:50 294 7 gusting 8 21.1
2014-Apr-23 10:41 272 5 gusting 7 21.1
2014-Apr-23 10:32 256 7 gusting 7 21.1
2014-Apr-23 10:23 293 5 gusting 5 21.1
2014-Apr-23 10:14 005 4 gusting 4 21.1
2014-Apr-23 10:05 327 4 gusting 5 20.6
2014-Apr-23 09:56 331 4 gusting 4 20.6
2014-Apr-23 09:47 338 1 gusting 5 20.6
2014-Apr-23 09:38 359 2 gusting 4 21.1
2014-Apr-23 09:29 358 3 gusting 4 20.6
2014-Apr-23 09:20 356 3 gusting 6 20.6
2014-Apr-23 09:11 122 2 gusting 5 20.0
2014-Apr-23 09:02 119 4 gusting 5 20.0
2014-Apr-23 08:53 128 2 gusting 4 19.4
2014-Apr-23 08:44 079 1 gusting 4 19.4
2014-Apr-23 08:35 053 2 gusting 2 19.4
2014-Apr-23 08:26 069 0 gusting 4 19.4
2014-Apr-23 08:17 18.9
2014-Apr-23 08:08 120 1 gusting 3 18.9
2014-Apr-23 07:59 032 3 gusting 3 18.9
2014-Apr-23 07:50 054 1 gusting 2 18.3
2014-Apr-23 07:41 124 0 gusting 3 18.3
2014-Apr-23 07:32 096 3 gusting 3 18.3
2014-Apr-23 07:23 102 2 gusting 2 17.8
2014-Apr-23 07:14 17.8
2014-Apr-23 07:05 17.2
2014-Apr-23 06:56 16.7
2014-Apr-23 06:47 294 0 gusting 1 16.7
2014-Apr-23 06:38 290 1 gusting 2 16.1
2014-Apr-23 06:29 292 2 gusting 2 15.6
2014-Apr-23 06:20 300 1 gusting 2 15.6
2014-Apr-23 06:11 294 1 gusting 2 15.6
2014-Apr-23 06:02 290 2 gusting 2 15.6
2014-Apr-23 05:53 305 2 gusting 2 15.6
2014-Apr-23 05:44 339 1 gusting 2 15.6
2014-Apr-23 05:35 15.6
2014-Apr-23 05:26 15.6
2014-Apr-23 05:17 232 0 gusting 1 15.6
2014-Apr-23 05:08 213 0 gusting 1 15.6
2014-Apr-23 04:59 210 1 gusting 3 15.6
2014-Apr-23 04:50 272 0 gusting 2 15.6
2014-Apr-23 04:41 300 2 gusting 2 16.1
2014-Apr-23 04:32 221 1 gusting 3 16.1
2014-Apr-23 04:23 142 1 gusting 1 16.1
2014-Apr-23 04:14 198 1 gusting 5 16.1
2014-Apr-23 04:05 209 5 gusting 5 16.1
2014-Apr-23 03:56 082 0 gusting 3 16.1
2014-Apr-23 03:47 154 1 gusting 5 16.1
2014-Apr-23 03:38 156 5 gusting 5 16.1
2014-Apr-23 03:29 184 0 gusting 5 16.1
2014-Apr-23 03:20 199 5 gusting 5 16.1
2014-Apr-23 03:11 200 3 gusting 8 16.1
2014-Apr-23 03:02 206 5 gusting 7 16.1
2014-Apr-23 02:53 184 4 gusting 5 16.1
2014-Apr-23 02:44 182 1 gusting 6 16.1
2014-Apr-23 02:35 192 3 gusting 3 16.1
2014-Apr-23 02:26 206 2 gusting 3 16.1
2014-Apr-23 02:17 208 2 gusting 3 16.1
2014-Apr-23 02:08 191 3 gusting 3 16.1
2014-Apr-23 01:59 175 1 gusting 3 16.1
2014-Apr-23 01:50 186 1 gusting 5 16.1
2014-Apr-23 01:41 200 5 gusting 5 16.1
2014-Apr-23 01:32 189 1 gusting 2 16.1
2014-Apr-23 01:23 167 2 gusting 3 16.1
2014-Apr-23 01:14 173 1 gusting 3 16.1
2014-Apr-23 01:05 157 1 gusting 3 16.1
2014-Apr-23 00:56 145 2 gusting 3 16.1
2014-Apr-23 00:47 153 1 gusting 4 16.1
2014-Apr-23 00:38 133 4 gusting 4 16.1
2014-Apr-23 00:29 155 2 gusting 4 16.7
2014-Apr-23 00:20 146 3 gusting 5 16.7
2014-Apr-23 00:11 140 3 gusting 5 16.7
2014-Apr-23 00:02 141 5 gusting 5 16.7
2014-Apr-22 23:53 146 4 gusting 5 16.7
2014-Apr-22 23:44 140 3 gusting 4 16.7
2014-Apr-22 23:35 160 3 gusting 3 16.7
2014-Apr-22 23:26 157 2 gusting 5 17.2
2014-Apr-22 23:17 157 4 gusting 4 17.2
2014-Apr-22 23:08 151 3 gusting 4 17.2
2014-Apr-22 22:59 158 2 gusting 4 17.2
2014-Apr-22 22:50 161 3 gusting 4 17.2
2014-Apr-22 22:41 151 3 gusting 4 17.2
2014-Apr-22 22:32 153 2 gusting 4 17.8
2014-Apr-22 22:23 130 2 gusting 4 17.8
2014-Apr-22 22:14 124 2 gusting 3 17.8
2014-Apr-22 22:05 133 3 gusting 4 17.8
2014-Apr-22 21:56 141 2 gusting 2 18.3
2014-Apr-22 21:47 157 2 gusting 3 18.3
2014-Apr-22 21:38 160 2 gusting 2 18.3
2014-Apr-22 21:29 158 2 gusting 2 18.3
2014-Apr-22 21:20 158 1 gusting 1 18.3
2014-Apr-22 21:11 158 0 gusting 2 18.3
2014-Apr-22 21:02 145 1 gusting 1 18.3
2014-Apr-22 20:53 133 1 gusting 1 18.3
2014-Apr-22 20:44 098 1 gusting 1 18.9
2014-Apr-22 20:35 089 1 gusting 2 18.9
2014-Apr-22 20:26 090 0 gusting 2 18.9
2014-Apr-22 20:17 106 1 gusting 2 18.9
2014-Apr-22 20:08 115 1 gusting 2 18.9
2014-Apr-22 19:59 159 2 gusting 4 18.9
2014-Apr-22 19:50 150 3 gusting 5 19.4
2014-Apr-22 19:41 182 3 gusting 5 18.9
2014-Apr-22 19:32 200 2 gusting 5 19.4
2014-Apr-22 19:23 204 3 gusting 3 19.4
2014-Apr-22 19:14 195 1 gusting 4 20.0
2014-Apr-22 19:05 149 4 gusting 4 20.6
2014-Apr-22 18:56 149 1 gusting 3 20.6
2014-Apr-22 18:47 206 2 gusting 4 20.6
2014-Apr-22 18:38 215 3 gusting 5 21.1
2014-Apr-22 18:29 197 4 gusting 4 22.2
2014-Apr-22 18:20 211 2 gusting 5 23.3
2014-Apr-22 18:11 191 5 gusting 5 26.1
2014-Apr-22 18:02 148 3 gusting 5 27.8
2014-Apr-22 17:53 137 3 gusting 5 29.4
2014-Apr-22 17:44 166 2 gusting 2 31.7
2014-Apr-22 17:35 31.7
2014-Apr-22 17:26 002 1 gusting 3 31.1
2014-Apr-22 17:17 011 3 gusting 4 32.2
2014-Apr-22 17:08 018 4 gusting 5 32.2
2014-Apr-22 16:59 012 3 gusting 5 33.3
2014-Apr-22 16:50 338 5 gusting 5 32.2
2014-Apr-22 16:41 324 2 gusting 3 32.2
2014-Apr-22 16:32 011 3 gusting 5 31.7
2014-Apr-22 16:23 003 3 gusting 4 31.1
2014-Apr-22 16:14 351 2 gusting 3 31.1
2014-Apr-22 16:05 024 1 gusting 6 29.4
2014-Apr-22 15:56 006 1 gusting 6 29.4
2014-Apr-22 15:47 359 2 gusting 5 28.9
2014-Apr-22 15:38 316 2 gusting 5 27.8
2014-Apr-22 15:29 332 2 gusting 5 26.7
2014-Apr-22 15:20 332 3 gusting 5 26.1
2014-Apr-22 15:11 311 5 gusting 6 25.6
2014-Apr-22 15:02 301 3 gusting 7 25.6
2014-Apr-22 14:53 314 4 gusting 7 25.0
2014-Apr-22 14:44 316 3 gusting 10 25.0
2014-Apr-22 14:35 357 10 gusting 10 25.0
2014-Apr-22 14:26 295 6 gusting 9 23.9
2014-Apr-22 14:17 297 3 gusting 9 23.3
2014-Apr-22 14:08 311 6 gusting 9 23.3
2014-Apr-22 13:59 314 1 gusting 10 22.8
2014-Apr-22 13:50 311 6 gusting 9 22.2
2014-Apr-22 13:41 289 6 gusting 8 22.2
2014-Apr-22 13:32 292 4 gusting 11 21.7
2014-Apr-22 13:23 298 11 gusting 11 21.1
2014-Apr-22 13:14 303 6 gusting 18 21.1
2014-Apr-22 13:05 294 5 gusting 13 20.6
2014-Apr-22 12:56 309 9 gusting 13 20.6
2014-Apr-22 12:47 287 13 gusting 13 20.6
2014-Apr-22 12:38 303 7 gusting 11 20.6
2014-Apr-22 12:29 303 3 gusting 9 20.0
2014-Apr-22 12:20 291 6 gusting 11 20.0
2014-Apr-22 12:11 323 3 gusting 8 20.0
2014-Apr-22 12:02 313 4 gusting 13 20.0
2014-Apr-22 11:53 291 7 gusting 10 19.4
2014-Apr-22 11:44 307 10 gusting 13 19.4
2014-Apr-22 11:35 286 3 gusting 10 19.4
2014-Apr-22 11:26 280 10 gusting 11 19.4
2014-Apr-22 11:17 287 5 gusting 11 19.4
2014-Apr-22 11:08 318 6 gusting 7 19.4
2014-Apr-22 10:59 348 6 gusting 7 19.4
2014-Apr-22 10:50 341 6 gusting 6 19.4
2014-Apr-22 10:41 350 3 gusting 6 19.4
2014-Apr-22 10:32 309 4 gusting 8 18.9
2014-Apr-22 10:23 302 5 gusting 8 18.9
2014-Apr-22 10:14 296 4 gusting 11 18.9
2014-Apr-22 10:05 302 5 gusting 7 18.9
2014-Apr-22 09:56 288 5 gusting 8 18.3
2014-Apr-22 09:47 306 3 gusting 8 18.3
2014-Apr-22 09:38 295 2 gusting 11 18.3
2014-Apr-22 09:29 321 6 gusting 6 18.3
2014-Apr-22 09:20 303 2 gusting 9 18.3
2014-Apr-22 09:11 316 2 gusting 8 18.3
2014-Apr-22 09:02 313 4 gusting 13 17.8
2014-Apr-22 08:53 319 8 gusting 9 17.8
2014-Apr-22 08:44 313 9 gusting 9 17.8
2014-Apr-22 08:35 299 6 gusting 12 17.8
2014-Apr-22 08:26 314 6 gusting 9 17.8
2014-Apr-22 08:17 318 8 gusting 8 17.8
2014-Apr-22 08:08 319 5 gusting 9 17.2
2014-Apr-22 07:59 333 2 gusting 6 17.2
2014-Apr-22 07:50 304 5 gusting 9 16.7
2014-Apr-22 07:41 305 7 gusting 7 16.7
2014-Apr-22 07:32 291 5 gusting 7 16.7
2014-Apr-22 07:23 295 5 gusting 7 16.7
2014-Apr-22 07:14 276 6 gusting 8 16.7
2014-Apr-22 07:05 273 6 gusting 11 16.7
2014-Apr-22 06:56 277 9 gusting 11 16.7
2014-Apr-22 06:47 263 11 gusting 11 16.1
2014-Apr-22 06:38 246 9 gusting 9 16.1
2014-Apr-22 06:29 254 6 gusting 13 15.6
2014-Apr-22 06:20 248 9 gusting 9 15.6
2014-Apr-22 06:11 246 9 gusting 9 15.6
2014-Apr-22 06:02 239 2 gusting 6 15.6
2014-Apr-22 05:53 225 5 gusting 7 15.0
2014-Apr-22 05:44 235 1 gusting 5 15.0
2014-Apr-22 05:35 241 3 gusting 6 15.0
2014-Apr-22 05:26 250 3 gusting 5 15.0
2014-Apr-22 05:17 216 3 gusting 5 15.0
2014-Apr-22 05:08 233 2 gusting 5 15.0
2014-Apr-22 04:59 233 4 gusting 8 15.0
2014-Apr-22 04:50 245 4 gusting 8 15.0
2014-Apr-22 04:41 247 5 gusting 5 15.0
2014-Apr-22 04:32 256 3 gusting 7 15.0
2014-Apr-22 04:23 252 7 gusting 7 15.0
2014-Apr-22 04:14 260 5 gusting 8 15.0
2014-Apr-22 04:05 244 4 gusting 8 15.6
2014-Apr-22 03:56 249 6 gusting 9 15.6
2014-Apr-22 03:47 246 6 gusting 10 15.6
2014-Apr-22 03:38 248 6 gusting 12 15.6
2014-Apr-22 03:29 245 8 gusting 12 15.6
2014-Apr-22 03:20 244 6 gusting 12 15.6
2014-Apr-22 03:11 239 6 gusting 9 15.6
2014-Apr-22 03:02 241 5 gusting 11 15.6
2014-Apr-22 02:53 260 9 gusting 11 16.1
2014-Apr-22 02:44 255 9 gusting 9 16.1
2014-Apr-22 02:35 250 5 gusting 9 16.1
2014-Apr-22 02:26 242 6 gusting 7 16.1
2014-Apr-22 02:17 261 4 gusting 9 16.1
2014-Apr-22 02:08 262 3 gusting 9 16.1
2014-Apr-22 01:59 269 6 gusting 7 16.1
2014-Apr-22 01:50 265 4 gusting 11 16.7
2014-Apr-22 01:41 261 5 gusting 11 16.7
2014-Apr-22 01:32 268 5 gusting 6 16.7
2014-Apr-22 01:23 261 6 gusting 10 16.7
2014-Apr-22 01:14 256 6 gusting 6 16.7
2014-Apr-22 01:05 266 5 gusting 10 16.7
2014-Apr-22 00:56 254 2 gusting 10 16.7
2014-Apr-22 00:47 247 5 gusting 8 16.7
2014-Apr-22 00:38 265 4 gusting 13 16.7
2014-Apr-22 00:29 250 11 gusting 11 16.7
2014-Apr-22 00:20 252 6 gusting 7 16.7
2014-Apr-22 00:11 238 2 gusting 6 16.7
2014-Apr-22 00:02 252 2 gusting 7 17.2
2014-Apr-21 23:53 261 2 gusting 11 17.2
2014-Apr-21 23:44 254 6 gusting 11 17.2
2014-Apr-21 23:35 253 9 gusting 13 17.2
2014-Apr-21 23:26 256 5 gusting 9 17.2
2014-Apr-21 23:17 258 5 gusting 10 17.2
2014-Apr-21 23:08 260 5 gusting 8 17.2
2014-Apr-21 22:59 259 4 gusting 7 16.7
2014-Apr-21 22:50 255 3 gusting 6 16.7
2014-Apr-21 22:41 234 6 gusting 6 16.7
2014-Apr-21 22:32 235 5 gusting 6 16.1
2014-Apr-21 22:23 216 4 gusting 6 16.1
2014-Apr-21 22:14 219 3 gusting 5 16.1
2014-Apr-21 22:05 210 4 gusting 6 16.1
2014-Apr-21 21:56 215 2 gusting 6 16.1
2014-Apr-21 21:47 220 2 gusting 6 16.7
2014-Apr-21 21:38 213 5 gusting 6 16.7
2014-Apr-21 21:29 184 3 gusting 3 16.7
2014-Apr-21 21:20 17.2
2014-Apr-21 21:11 150 2 gusting 2 17.2
2014-Apr-21 21:02 142 2 gusting 3 17.2
2014-Apr-21 20:53 135 3 gusting 3 17.2
2014-Apr-21 20:44 17.2
2014-Apr-21 20:35 135 1 gusting 2 17.2
2014-Apr-21 20:26 151 2 gusting 2 17.2
2014-Apr-21 20:17 173 1 gusting 2 17.8
2014-Apr-21 20:08 189 0 gusting 2 17.8
2014-Apr-21 19:59 17.8
2014-Apr-21 19:50 131 1 gusting 1 17.8
2014-Apr-21 19:41 099 0 gusting 3 17.8
2014-Apr-21 19:32 080 1 gusting 1 17.8
2014-Apr-21 19:23 067 0 gusting 2 18.3
2014-Apr-21 19:14 158 0 gusting 4 18.3
2014-Apr-21 19:05 165 0 gusting 5 17.8
2014-Apr-21 18:56 150 3 gusting 5 18.3
2014-Apr-21 18:47 136 2 gusting 6 18.3
2014-Apr-21 18:38 176 3 gusting 6 18.3
2014-Apr-21 18:29 162 5 gusting 7 18.9
2014-Apr-21 18:20 152 5 gusting 7 18.9
2014-Apr-21 18:11 145 4 gusting 6 18.9
2014-Apr-21 18:02 175 6 gusting 7 19.4
2014-Apr-21 17:53 159 5 gusting 9 19.4
2014-Apr-21 17:44 183 2 gusting 11 20.0
2014-Apr-21 17:35 182 7 gusting 11 20.6
2014-Apr-21 17:26 163 6 gusting 9 21.7
2014-Apr-21 17:17 179 5 gusting 11 22.2
2014-Apr-21 17:08 170 7 gusting 11 22.2
2014-Apr-21 16:59 176 7 gusting 11 22.8
2014-Apr-21 16:50 175 10 gusting 14 25.0
2014-Apr-21 16:41 154 5 gusting 9 26.7
2014-Apr-21 16:32 146 4 gusting 8 27.8
2014-Apr-21 16:23 162 8 gusting 12 26.1
2014-Apr-21 16:14 179 4 gusting 10 26.1
2014-Apr-21 16:05 179 7 gusting 11 26.1
2014-Apr-21 15:56 158 7 gusting 8 25.6
2014-Apr-21 15:47 135 7 gusting 8 25.6
2014-Apr-21 15:38 148 7 gusting 11 24.4
2014-Apr-21 15:29 168 9 gusting 12 25.0
2014-Apr-21 15:20 183 8 gusting 12 24.4
2014-Apr-21 15:11 155 6 gusting 9 24.4
2014-Apr-21 15:02 151 7 gusting 9 25.0
2014-Apr-21 14:53 155 9 gusting 10 24.4
2014-Apr-21 14:44 160 6 gusting 11 23.9
2014-Apr-21 14:35 149 7 gusting 9 24.4
2014-Apr-21 14:26 133 3 gusting 7 23.9
2014-Apr-21 14:17 133 5 gusting 8 23.3
2014-Apr-21 14:08 162 2 gusting 8 23.3
2014-Apr-21 13:59 188 5 gusting 8 22.8
2014-Apr-21 13:50 172 7 gusting 9 22.8
2014-Apr-21 13:41 165 9 gusting 13 22.8
2014-Apr-21 13:32 152 6 gusting 9 22.2
2014-Apr-21 13:23 179 6 gusting 11 21.7
2014-Apr-21 13:14 198 8 gusting 8 21.7
2014-Apr-21 13:05 198 7 gusting 8 21.7